Time,TemperatureF,DewpointF,PressureIn,WindDirection,WindDirectionDegrees,WindSpeedMPH,WindSpeedGustMPH,Humidity,HourlyPrecipIn,Conditions,Clouds,dailyrainin,SoftwareType,DateUTC
2013-01-31 00:03:00,21.1,16.8,30.04,SW,234,0.0,0.0,83,0.00,RA,SKC,0.00,WeatherDisplay:10.37,2013-01-31 06:03:00,
2013-01-31 00:08:00,21.0,16.7,30.04,SW,236,0.0,2.0,83,0.00,CLR,SKC,0.00,WeatherDisplay:10.37,2013-01-31 06:08:00,
2013-01-31 00:13:00,21.0,16.9,30.04,SW,233,0.0,3.0,84,0.00,CLR,SKC,0.00,WeatherDisplay:10.37,2013-01-31 06:13:00,
2013-01-31 00:18:00,20.9,16.8,30.04,WSW,256,0.0,0.0,84,0.00,CLR,SKC,0.00,WeatherDisplay:10.37,2013-01-31 06:18:00,
2013-01-31 00:23:00,20.8,16.8,30.04,West,261,0.0,0.0,84,0.00,CLR,SKC,0.00,WeatherDisplay:10.37,2013-01-31 06:23:00,
2013-01-31 00:28:00,20.8,16.7,30.04,WSW,258,0.0,2.0,84,0.00,CLR,SKC,0.00,WeatherDisplay:10.37,2013-01-31 06:28:00,
2013-01-31 00:33:00,20.8,16.8,30.04,WSW,248,0.0,3.0,84,0.00,CLR,SKC,0.00,WeatherDisplay:10.37,2013-01-31 06:33:00,
2013-01-31 00:38:00,20.8,16.8,30.04,SW,231,0.0,2.0,84,0.00,CLR,SKC,0.00,WeatherDisplay:10.37,2013-01-31 06:38:00,
2013-01-31 00:43:00,20.8,16.7,30.04,SW,228,0.0,3.0,84,0.00,CLR,SKC,0.00,WeatherDisplay:10.37,2013-01-31 06:43:00,
2013-01-31 00:53:00,20.8,16.7,30.04,WSW,245,1.0,3.0,84,0.00,CLR,SKC,0.00,WeatherDisplay:10.37,2013-01-31 06:53:00,
2013-01-31 00:58:00,20.8,16.7,30.04,WSW,240,0.0,3.0,84,0.00,CLR,SKC,0.00,WeatherDisplay:10.37,2013-01-31 06:58:00,
2013-01-31 01:03:00,20.7,16.6,30.04,WSW,237,0.0,2.0,84,0.00,CLR,SKC,0.00,WeatherDisplay:10.37,2013-01-31 07:03:00,
2013-01-31 01:08:00,20.7,16.9,30.04,WSW,237,0.0,3.0,85,0.00,CLR,SKC,0.00,WeatherDisplay:10.37,2013-01-31 07:08:00,
2013-01-31 01:13:00,20.7,16.9,30.03,SW,234,0.0,3.0,85,0.00,CLR,SKC,0.00,WeatherDisplay:10.37,2013-01-31 07:13:00,
2013-01-31 01:18:00,20.6,16.8,30.03,WSW,239,0.0,3.0,85,0.00,CLR,SKC,0.00,WeatherDisplay:10.37,2013-01-31 07:18:00,
2013-01-31 01:23:00,20.4,16.6,30.03,SW,226,0.0,2.0,85,0.00,CLR,SKC,0.00,WeatherDisplay:10.37,2013-01-31 07:23:00,
2013-01-31 01:28:00,20.2,16.4,30.04,SSW,206,0.0,2.0,85,0.00,CLR,SKC,0.00,WeatherDisplay:10.37,2013-01-31 07:28:00,
2013-01-31 01:38:00,20.0,16.5,30.04,SW,224,0.0,0.0,86,0.00,CLR,SKC,0.00,WeatherDisplay:10.37,2013-01-31 07:38:00,
2013-01-31 01:43:00,20.1,16.6,30.04,SW,235,0.0,2.0,86,0.00,CLR,SKC,0.00,WeatherDisplay:10.37,2013-01-31 07:43:00,
2013-01-31 01:53:00,20.2,16.6,30.04,WSW,252,0.0,2.0,86,0.00,CLR,SKC,0.00,WeatherDisplay:10.37,2013-01-31 07:53:00,
2013-01-31 01:58:00,20.2,16.7,30.04,WSW,257,0.0,0.0,86,0.00,CLR,SKC,0.00,WeatherDisplay:10.37,2013-01-31 07:58:00,
2013-01-31 02:03:00,20.2,16.7,30.04,WSW,255,0.0,3.0,86,0.00,CLR,SKC,0.00,WeatherDisplay:10.37,2013-01-31 08:03:00,
2013-01-31 02:08:00,20.2,16.7,30.05,West,264,0.0,2.0,86,0.00,CLR,SKC,0.00,WeatherDisplay:10.37,2013-01-31 08:08:00,
2013-01-31 02:18:00,20.2,16.7,30.05,West,262,0.0,2.0,86,0.00,CLR,SKC,0.00,WeatherDisplay:10.37,2013-01-31 08:18:00,
2013-01-31 02:23:00,20.2,16.7,30.05,SW,234,0.0,0.0,86,0.00,CLR,SKC,0.00,WeatherDisplay:10.37,2013-01-31 08:23:00,
2013-01-31 02:28:00,20.4,16.8,30.05,SW,233,0.0,2.0,86,0.00,CLR,SKC,0.00,WeatherDisplay:10.37,2013-01-31 08:28:00,
2013-01-31 02:33:00,20.5,17.0,30.05,SSW,211,0.0,0.0,86,0.00,CLR,SKC,0.00,WeatherDisplay:10.37,2013-01-31 08:33:00,
2013-01-31 02:38:00,20.7,17.1,30.04,SSW,206,0.0,3.0,86,0.00,CLR,SKC,0.00,WeatherDisplay:10.37,2013-01-31 08:38:00,
2013-01-31 02:43:00,20.7,17.2,30.05,SW,218,1.0,3.0,86,0.00,CLR,SKC,0.00,WeatherDisplay:10.37,2013-01-31 08:43:00,
2013-01-31 02:48:00,20.8,17.3,30.05,WSW,237,0.0,3.0,86,0.00,CLR,SKC,0.00,WeatherDisplay:10.37,2013-01-31 08:48:00,
2013-01-31 02:53:00,21.1,17.3,30.05,WSW,240,0.0,5.0,85,0.00,CLR,SKC,0.00,WeatherDisplay:10.37,2013-01-31 08:53:00,
2013-01-31 02:58:00,21.3,17.5,30.05,SW,215,0.0,8.0,85,0.00,CLR,SKC,0.00,WeatherDisplay:10.37,2013-01-31 08:58:00,
2013-01-31 03:03:00,21.5,17.7,30.05,SW,222,0.0,2.0,85,0.00,CLR,SKC,0.00,WeatherDisplay:10.37,2013-01-31 09:03:00,
2013-01-31 03:08:00,21.8,18.0,30.05,SW,225,2.0,8.0,85,0.00,CLR,SKC,0.00,WeatherDisplay:10.37,2013-01-31 09:08:00,
2013-01-31 03:13:00,22.2,18.4,30.05,WSW,253,2.0,5.0,85,0.00,CLR,SKC,0.00,WeatherDisplay:10.37,2013-01-31 09:13:00,
2013-01-31 03:18:00,22.4,18.3,30.05,West,261,0.0,2.0,84,0.00,CLR,SKC,0.00,WeatherDisplay:10.37,2013-01-31 09:18:00,
2013-01-31 03:23:00,22.6,18.5,30.04,West,268,1.0,3.0,84,0.00,CLR,SKC,0.00,WeatherDisplay:10.37,2013-01-31 09:23:00,
2013-01-31 03:28:00,22.7,18.6,30.05,West,266,0.0,7.0,84,0.00,CLR,SKC,0.00,WeatherDisplay:10.37,2013-01-31 09:28:00,
2013-01-31 03:33:00,23.0,18.9,30.05,WSW,248,1.0,3.0,84,0.00,CLR,SKC,0.00,WeatherDisplay:10.37,2013-01-31 09:33:00,
2013-01-31 03:38:00,23.2,19.1,30.04,WSW,244,0.0,7.0,84,0.00,CLR,SKC,0.00,WeatherDisplay:10.37,2013-01-31 09:38:00,
2013-01-31 03:43:00,23.4,19.3,30.04,West,264,1.0,3.0,84,0.00,CLR,SKC,0.00,WeatherDisplay:10.37,2013-01-31 09:43:00,
2013-01-31 03:48:00,23.5,19.4,30.04,WSW,246,1.0,5.0,84,0.00,CLR,SKC,0.00,WeatherDisplay:10.37,2013-01-31 09:48:00,
2013-01-31 03:53:00,23.6,19.5,30.04,WSW,239,0.0,2.0,84,0.00,CLR,SKC,0.00,WeatherDisplay:10.37,2013-01-31 09:53:00,
2013-01-31 03:58:00,23.8,19.7,30.04,WSW,258,0.0,2.0,84,0.00,CLR,SKC,0.00,WeatherDisplay:10.37,2013-01-31 09:58:00,
2013-01-31 04:03:00,23.9,19.8,30.03,West,261,0.0,1.0,84,0.00,CLR,SKC,0.00,WeatherDisplay:10.37,2013-01-31 10:03:00,
2013-01-31 04:08:00,24.0,19.9,30.03,West,260,0.0,2.0,84,0.00,CLR,SKC,0.00,WeatherDisplay:10.37,2013-01-31 10:08:00,
2013-01-31 04:13:00,24.0,19.9,30.02,West,259,0.0,2.0,84,0.00,CLR,SKC,0.00,WeatherDisplay:10.37,2013-01-31 10:13:00,
2013-01-31 04:18:00,24.1,19.7,30.03,SW,223,0.0,0.0,83,0.00,CLR,SKC,0.00,WeatherDisplay:10.37,2013-01-31 10:18:00,
2013-01-31 04:23:00,24.2,19.8,30.02,SW,215,0.0,3.0,83,0.00,CLR,SKC,0.00,WeatherDisplay:10.37,2013-01-31 10:23:00,
2013-01-31 04:28:00,24.2,19.8,30.02,WSW,246,0.0,0.0,83,0.00,CLR,SKC,0.00,WeatherDisplay:10.37,2013-01-31 10:28:00,
2013-01-31 04:33:00,24.3,19.9,30.02,WSW,249,0.0,3.0,83,0.00,CLR,SKC,0.00,WeatherDisplay:10.37,2013-01-31 10:33:00,
2013-01-31 04:38:00,24.3,19.6,30.02,WSW,256,0.0,2.0,82,0.00,CLR,SKC,0.00,WeatherDisplay:10.37,2013-01-31 10:38:00,
2013-01-31 04:43:00,24.4,19.7,30.02,WSW,252,0.0,2.0,82,0.00,CLR,SKC,0.00,WeatherDisplay:10.37,2013-01-31 10:43:00,
2013-01-31 04:48:00,24.4,19.7,30.03,WSW,241,1.0,3.0,82,0.00,CLR,SKC,0.00,WeatherDisplay:10.37,2013-01-31 10:48:00,
2013-01-31 04:53:00,24.5,19.8,30.02,WSW,242,0.0,2.0,82,0.00,CLR,SKC,0.00,WeatherDisplay:10.37,2013-01-31 10:53:00,
2013-01-31 04:58:00,24.4,19.7,30.03,WSW,257,0.0,0.0,82,0.00,CLR,SKC,0.00,WeatherDisplay:10.37,2013-01-31 10:58:00,
2013-01-31 05:03:00,24.5,20.1,30.03,West,262,0.0,0.0,83,0.00,CLR,SKC,0.00,WeatherDisplay:10.37,2013-01-31 11:03:00,
2013-01-31 05:08:00,24.5,20.1,30.03,West,264,0.0,0.0,83,0.00,CLR,SKC,0.00,WeatherDisplay:10.37,2013-01-31 11:08:00,
2013-01-31 05:13:00,24.4,20.0,30.03,West,264,0.0,0.0,83,0.00,CLR,SKC,0.00,WeatherDisplay:10.37,2013-01-31 11:13:00,
2013-01-31 05:18:00,24.3,19.6,30.03,West,264,0.0,0.0,82,0.00,CLR,SKC,0.00,WeatherDisplay:10.37,2013-01-31 11:18:00,
2013-01-31 05:23:00,24.3,19.6,30.03,West,264,0.0,0.0,82,0.00,CLR,SKC,0.00,WeatherDisplay:10.37,2013-01-31 11:23:00,
2013-01-31 05:28:00,24.3,19.6,30.03,West,264,0.0,0.0,82,0.00,CLR,SKC,0.00,WeatherDisplay:10.37,2013-01-31 11:28:00,
2013-01-31 05:33:00,24.2,19.5,30.03,West,264,0.0,0.0,82,0.00,CLR,SKC,0.00,WeatherDisplay:10.37,2013-01-31 11:33:00,
2013-01-31 05:38:00,24.2,19.5,30.03,West,264,0.0,0.0,82,0.00,CLR,SKC,0.00,WeatherDisplay:10.37,2013-01-31 11:38:00,
2013-01-31 05:43:00,24.1,19.7,30.03,West,264,0.0,0.0,83,0.00,CLR,SKC,0.00,WeatherDisplay:10.37,2013-01-31 11:43:00,
2013-01-31 05:48:00,24.1,19.7,30.04,West,264,0.0,0.0,83,0.00,CLR,SKC,0.00,WeatherDisplay:10.37,2013-01-31 11:48:00,
2013-01-31 05:58:00,24.1,19.7,30.05,West,264,0.0,0.0,83,0.00,CLR,SKC,0.00,WeatherDisplay:10.37,2013-01-31 11:58:00,
2013-01-31 06:03:00,24.1,19.7,30.05,West,264,0.0,2.0,83,0.00,CLR,SKC,0.00,WeatherDisplay:10.37,2013-01-31 12:03:00,
2013-01-31 06:08:00,24.1,19.7,30.05,West,264,0.0,0.0,83,0.00,CLR,SKC,0.00,WeatherDisplay:10.37,2013-01-31 12:08:00,
2013-01-31 06:13:00,24.0,19.6,30.05,West,264,0.0,2.0,83,0.00,CLR,SKC,0.00,WeatherDisplay:10.37,2013-01-31 12:13:00,
2013-01-31 06:18:00,24.0,19.9,30.05,West,269,0.0,2.0,84,0.00,CLR,SKC,0.00,WeatherDisplay:10.37,2013-01-31 12:18:00,
2013-01-31 06:23:00,24.0,19.9,30.06,WNW,298,1.0,5.0,84,0.00,CLR,SKC,0.00,WeatherDisplay:10.37,2013-01-31 12:23:00,
2013-01-31 06:28:00,23.9,19.8,30.07,NNW,335,2.0,8.0,84,0.00,CLR,SKC,0.00,WeatherDisplay:10.37,2013-01-31 12:28:00,
2013-01-31 06:33:00,23.7,19.6,30.07,NNW,343,5.0,10.0,84,0.00,CLR,SKC,0.00,WeatherDisplay:10.37,2013-01-31 12:33:00,
2013-01-31 06:38:00,23.5,19.6,30.07,North,354,3.0,8.0,85,0.00,CLR,SKC,0.00,WeatherDisplay:10.37,2013-01-31 12:38:00,
2013-01-31 06:43:00,23.3,19.5,30.08,NNW,345,2.0,5.0,85,0.00,CLR,SKC,0.00,WeatherDisplay:10.37,2013-01-31 12:43:00,
2013-01-31 06:48:00,23.2,19.6,30.08,NW,326,1.0,7.0,86,0.00,CLR,SKC,0.00,WeatherDisplay:10.37,2013-01-31 12:48:00,
2013-01-31 06:58:00,23.0,19.4,30.08,North,355,1.0,5.0,86,0.00,CLR,SKC,0.00,WeatherDisplay:10.37,2013-01-31 12:58:00,
2013-01-31 07:03:00,22.8,19.3,30.09,NNW,338,1.0,7.0,86,0.00,CLR,SKC,0.00,WeatherDisplay:10.37,2013-01-31 13:03:00,
2013-01-31 07:08:00,22.7,19.2,30.09,NNW,334,0.0,7.0,86,0.00,CLR,SKC,0.00,WeatherDisplay:10.37,2013-01-31 13:08:00,
2013-01-31 07:13:00,22.6,19.1,30.10,NNW,330,2.0,6.0,86,0.00,CLR,SKC,0.00,WeatherDisplay:10.37,2013-01-31 13:13:00,
2013-01-31 07:18:00,22.6,19.0,30.10,NNW,342,0.0,5.0,86,0.00,CLR,SKC,0.00,WeatherDisplay:10.37,2013-01-31 13:18:00,
2013-01-31 07:23:00,22.5,18.9,30.10,NNW,343,1.0,10.0,86,0.00,CLR,SKC,0.00,WeatherDisplay:10.37,2013-01-31 13:23:00,
2013-01-31 07:28:00,22.4,18.6,30.10,NNW,336,2.0,7.0,85,0.00,CLR,SKC,0.00,WeatherDisplay:10.37,2013-01-31 13:28:00,
2013-01-31 07:33:00,22.3,18.5,30.11,North,357,9.0,22.0,85,0.00,CLR,SKC,0.00,WeatherDisplay:10.37,2013-01-31 13:33:00,
2013-01-31 07:38:00,22.1,17.7,30.11,North,1,9.0,20.0,83,0.00,CLR,SKC,0.00,WeatherDisplay:10.37,2013-01-31 13:38:00,
2013-01-31 07:43:00,21.9,17.3,30.12,North,354,10.0,20.0,82,0.00,CLR,SKC,0.00,WeatherDisplay:10.37,2013-01-31 13:43:00,
2013-01-31 07:48:00,21.8,16.9,30.12,NNW,338,5.0,16.0,81,0.00,CLR,SKC,0.00,WeatherDisplay:10.37,2013-01-31 13:48:00,
2013-01-31 07:53:00,21.7,16.8,30.12,NNW,337,14.0,18.0,81,0.00,CLR,SKC,0.00,WeatherDisplay:10.37,2013-01-31 13:53:00,
2013-01-31 07:58:00,21.7,16.5,30.13,North,358,9.0,18.0,80,0.00,CLR,SKC,0.00,WeatherDisplay:10.37,2013-01-31 13:58:00,
2013-01-31 08:03:00,21.6,16.1,30.13,North,2,10.0,24.0,79,0.00,CLR,SKC,0.00,WeatherDisplay:10.37,2013-01-31 14:03:00,
2013-01-31 08:08:00,21.5,16.0,30.13,North,4,8.0,19.0,79,0.00,CLR,SKC,0.00,WeatherDisplay:10.37,2013-01-31 14:08:00,
2013-01-31 08:13:00,21.5,16.0,30.14,NNW,345,3.0,21.0,79,0.00,CLR,SKC,0.00,WeatherDisplay:10.37,2013-01-31 14:13:00,
2013-01-31 08:18:00,21.6,15.8,30.14,NW,326,7.0,16.0,78,0.00,CLR,SKC,0.00,WeatherDisplay:10.37,2013-01-31 14:18:00,
2013-01-31 08:23:00,21.5,15.4,30.14,NNW,330,10.0,16.0,77,0.00,CLR,SKC,0.00,WeatherDisplay:10.37,2013-01-31 14:23:00,
2013-01-31 08:28:00,21.6,15.5,30.15,NNW,341,5.0,11.0,77,0.00,CLR,SKC,0.00,WeatherDisplay:10.37,2013-01-31 14:28:00,
2013-01-31 08:38:00,21.9,15.2,30.15,NNW,338,3.0,12.0,75,0.00,CLR,SKC,0.00,WeatherDisplay:10.37,2013-01-31 14:38:00,
2013-01-31 08:43:00,21.9,14.9,30.15,NNW,330,1.0,14.0,74,0.00,CLR,SKC,0.00,WeatherDisplay:10.37,2013-01-31 14:43:00,
2013-01-31 08:48:00,22.2,15.2,30.16,NNW,336,3.0,8.0,74,0.00,CLR,SKC,0.00,WeatherDisplay:10.37,2013-01-31 14:48:00,
2013-01-31 08:58:00,22.0,14.4,30.16,NNW,336,6.0,18.0,72,0.00,CLR,SKC,0.00,WeatherDisplay:10.37,2013-01-31 14:58:00,
2013-01-31 09:03:00,21.8,13.8,30.17,NNW,340,9.0,16.0,71,0.00,CLR,SKC,0.00,WeatherDisplay:10.37,2013-01-31 15:03:00,
2013-01-31 09:08:00,21.7,13.4,30.17,NNW,342,8.0,12.0,70,0.00,CLR,SKC,0.00,WeatherDisplay:10.37,2013-01-31 15:08:00,
2013-01-31 09:18:00,21.6,13.7,30.17,NNW,334,5.0,10.0,71,0.00,CLR,SKC,0.00,WeatherDisplay:10.37,2013-01-31 15:18:00,
2013-01-31 09:23:00,21.6,13.6,30.18,NW,319,7.0,13.0,71,0.00,CLR,SKC,0.00,WeatherDisplay:10.37,2013-01-31 15:23:00,
2013-01-31 09:28:00,21.5,13.6,30.18,NW,320,3.0,12.0,71,0.00,CLR,SKC,0.00,WeatherDisplay:10.37,2013-01-31 15:28:00,
2013-01-31 09:38:00,21.7,13.8,30.19,NNW,345,6.0,15.0,71,0.00,CLR,SKC,0.00,WeatherDisplay:10.37,2013-01-31 15:38:00,
2013-01-31 09:43:00,21.6,12.3,30.19,NNW,333,7.0,12.0,67,0.00,CLR,SKC,0.00,WeatherDisplay:10.37,2013-01-31 15:43:00,
2013-01-31 09:48:00,21.3,11.7,30.20,NNW,332,6.0,16.0,66,0.00,CLR,SKC,0.00,WeatherDisplay:10.37,2013-01-31 15:48:00,
2013-01-31 09:53:00,21.3,11.7,30.19,NNW,334,5.0,12.0,66,0.00,CLR,SKC,0.00,WeatherDisplay:10.37,2013-01-31 15:53:00,
2013-01-31 09:58:00,21.3,11.7,30.21,NNW,345,10.0,16.0,66,0.00,CLR,SKC,0.00,WeatherDisplay:10.37,2013-01-31 15:58:00,
2013-01-31 10:03:00,21.6,11.6,30.21,NW,320,7.0,12.0,65,0.00,CLR,SKC,0.00,WeatherDisplay:10.37,2013-01-31 16:03:00,
2013-01-31 10:08:00,21.7,11.8,30.22,NW,311,5.0,13.0,65,0.00,CLR,SKC,0.00,WeatherDisplay:10.37,2013-01-31 16:08:00,
2013-01-31 10:13:00,21.6,12.0,30.22,NW,319,5.0,13.0,66,0.00,CLR,SKC,0.00,WeatherDisplay:10.37,2013-01-31 16:13:00,
2013-01-31 10:18:00,21.5,12.2,30.22,NNW,336,5.0,12.0,67,0.00,CLR,SKC,0.00,WeatherDisplay:10.37,2013-01-31 16:18:00,
2013-01-31 10:23:00,21.5,10.5,30.23,NW,322,6.0,13.0,62,0.00,CLR,SKC,0.00,WeatherDisplay:10.37,2013-01-31 16:23:00,
2013-01-31 10:28:00,21.2,9.8,30.23,NW,325,9.0,20.0,61,0.00,CLR,SKC,0.00,WeatherDisplay:10.37,2013-01-31 16:28:00,
2013-01-31 10:33:00,20.9,9.9,30.22,NNW,342,13.0,20.0,62,0.00,CLR,SKC,0.00,WeatherDisplay:10.37,2013-01-31 16:33:00,
2013-01-31 10:38:00,20.8,10.5,30.22,NNW,337,7.0,20.0,64,0.00,CLR,SKC,0.00,WeatherDisplay:10.37,2013-01-31 16:38:00,
2013-01-31 10:43:00,20.6,9.7,30.23,NW,322,7.0,13.0,62,0.00,CLR,SKC,0.00,WeatherDisplay:10.37,2013-01-31 16:43:00,
2013-01-31 10:48:00,20.4,9.8,30.23,NW,312,8.0,13.0,63,0.00,CLR,SKC,0.00,WeatherDisplay:10.37,2013-01-31 16:48:00,
2013-01-31 10:58:00,20.3,7.9,30.25,NW,310,8.0,12.0,58,0.00,CLR,SKC,0.00,WeatherDisplay:10.37,2013-01-31 16:58:00,
2013-01-31 11:03:00,20.2,8.5,30.25,NW,319,8.0,13.0,60,0.00,CLR,SKC,0.00,WeatherDisplay:10.37,2013-01-31 17:03:00,
2013-01-31 11:08:00,20.1,8.4,30.25,NNW,338,6.0,16.0,60,0.00,CLR,SKC,0.00,WeatherDisplay:10.37,2013-01-31 17:08:00,
2013-01-31 11:13:00,20.3,8.6,30.26,NW,323,6.0,10.0,60,0.00,CLR,SKC,0.00,WeatherDisplay:10.37,2013-01-31 17:13:00,
2013-01-31 11:18:00,20.3,8.3,30.26,NW,311,9.0,20.0,59,0.00,CLR,SKC,0.00,WeatherDisplay:10.37,2013-01-31 17:18:00,
2013-01-31 11:28:00,20.3,8.2,30.27,NW,310,6.0,12.0,59,0.00,CLR,SKC,0.00,WeatherDisplay:10.37,2013-01-31 17:28:00,
2013-01-31 11:33:00,20.2,8.2,30.27,NNW,331,12.0,21.0,59,0.00,CLR,SKC,0.00,WeatherDisplay:10.37,2013-01-31 17:33:00,
2013-01-31 11:38:00,20.0,8.0,30.28,NW,324,12.0,16.0,59,0.00,CLR,SKC,0.00,WeatherDisplay:10.37,2013-01-31 17:38:00,
2013-01-31 11:48:00,19.9,9.0,30.28,NNW,332,7.0,15.0,62,0.00,CLR,SKC,0.00,WeatherDisplay:10.37,2013-01-31 17:48:00,
2013-01-31 11:53:00,19.8,9.3,30.28,NNW,340,9.0,19.0,63,0.00,CLR,SKC,0.00,WeatherDisplay:10.37,2013-01-31 17:53:00,
2013-01-31 11:58:00,19.7,8.8,30.29,NNW,330,8.0,20.0,62,0.00,CLR,SKC,0.00,WeatherDisplay:10.37,2013-01-31 17:58:00,
2013-01-31 12:03:00,19.6,7.9,30.28,NNW,327,8.0,21.0,60,0.00,CLR,SKC,0.00,WeatherDisplay:10.37,2013-01-31 18:03:00,
2013-01-31 12:08:00,19.3,7.7,30.29,NW,320,10.0,21.0,60,0.00,CLR,SKC,0.00,WeatherDisplay:10.37,2013-01-31 18:08:00,
2013-01-31 12:18:00,19.7,8.4,30.29,NW,323,7.0,13.0,61,0.00,CLR,SKC,0.00,WeatherDisplay:10.37,2013-01-31 18:18:00,
2013-01-31 12:23:00,20.1,9.2,30.30,NW,324,7.0,12.0,62,0.00,CLR,SKC,0.00,WeatherDisplay:10.37,2013-01-31 18:23:00,
2013-01-31 12:28:00,19.6,8.0,30.30,NW,315,9.0,16.0,60,0.00,CLR,SKC,0.00,WeatherDisplay:10.37,2013-01-31 18:28:00,
2013-01-31 12:38:00,19.2,7.2,30.30,NW,318,12.0,22.0,59,0.00,CLR,SKC,0.00,WeatherDisplay:10.37,2013-01-31 18:38:00,
2013-01-31 12:48:00,19.2,8.3,30.30,NW,305,7.0,13.0,62,0.00,CLR,SKC,0.00,WeatherDisplay:10.37,2013-01-31 18:48:00,
2013-01-31 12:53:00,19.5,8.2,30.30,NNW,333,8.0,18.0,61,0.00,CLR,SKC,0.00,WeatherDisplay:10.37,2013-01-31 18:53:00,
2013-01-31 12:58:00,19.5,8.6,30.31,NW,318,5.0,24.0,62,0.00,CLR,SKC,0.00,WeatherDisplay:10.37,2013-01-31 18:58:00,
2013-01-31 13:03:00,19.8,8.9,30.31,NW,322,6.0,16.0,62,0.00,CLR,SKC,0.00,WeatherDisplay:10.37,2013-01-31 19:03:00,
2013-01-31 13:08:00,19.8,8.9,30.31,NW,311,7.0,16.0,62,0.00,CLR,SKC,0.00,WeatherDisplay:10.37,2013-01-31 19:08:00,
2013-01-31 13:13:00,20.1,9.5,30.31,NW,322,8.0,16.0,63,0.00,CLR,SKC,0.00,WeatherDisplay:10.37,2013-01-31 19:13:00,
2013-01-31 13:18:00,19.8,8.5,30.31,NNW,342,9.0,20.0,61,0.00,CLR,SKC,0.00,WeatherDisplay:10.37,2013-01-31 19:18:00,
2013-01-31 13:28:00,20.3,9.7,30.31,NNW,332,15.0,24.0,63,0.00,CLR,SKC,0.00,WeatherDisplay:10.37,2013-01-31 19:28:00,
2013-01-31 13:33:00,20.8,9.8,30.32,NNW,335,10.0,24.0,62,0.00,CLR,SKC,0.00,WeatherDisplay:10.37,2013-01-31 19:33:00,
2013-01-31 13:38:00,20.8,9.4,30.32,NW,310,8.0,18.0,61,0.00,CLR,SKC,0.00,WeatherDisplay:10.37,2013-01-31 19:38:00,
2013-01-31 13:43:00,21.1,10.1,30.32,NW,308,5.0,15.0,62,0.00,CLR,SKC,0.00,WeatherDisplay:10.37,2013-01-31 19:43:00,
2013-01-31 13:48:00,21.1,9.0,30.32,NW,321,13.0,20.0,59,0.00,CLR,SKC,0.00,WeatherDisplay:10.37,2013-01-31 19:48:00,
2013-01-31 13:53:00,20.6,8.5,30.32,NW,322,13.0,28.0,59,0.00,CLR,SKC,0.00,WeatherDisplay:10.37,2013-01-31 19:53:00,
2013-01-31 13:58:00,20.3,8.6,30.32,NW,322,8.0,19.0,60,0.00,CLR,SKC,0.00,WeatherDisplay:10.37,2013-01-31 19:58:00,
2013-01-31 14:03:00,20.4,8.7,30.32,NW,313,10.0,18.0,60,0.00,CLR,SKC,0.00,WeatherDisplay:10.37,2013-01-31 20:03:00,
2013-01-31 14:08:00,20.2,8.2,30.32,NW,307,9.0,22.0,59,0.00,CLR,SKC,0.00,WeatherDisplay:10.37,2013-01-31 20:08:00,
2013-01-31 14:13:00,20.1,8.4,30.33,WNW,302,9.0,17.0,60,0.00,CLR,SKC,0.00,WeatherDisplay:10.37,2013-01-31 20:13:00,
2013-01-31 14:18:00,20.2,8.6,30.33,NW,311,7.0,13.0,60,0.00,CLR,SKC,0.00,WeatherDisplay:10.37,2013-01-31 20:18:00,
2013-01-31 14:28:00,20.6,8.1,30.33,NW,311,9.0,18.0,58,0.00,CLR,SKC,0.00,WeatherDisplay:10.37,2013-01-31 20:28:00,
2013-01-31 14:33:00,20.5,7.6,30.34,NW,314,9.0,20.0,57,0.00,CLR,SKC,0.00,WeatherDisplay:10.37,2013-01-31 20:33:00,
2013-01-31 14:38:00,20.3,7.9,30.34,NW,322,9.0,18.0,58,0.00,CLR,SKC,0.00,WeatherDisplay:10.37,2013-01-31 20:38:00,
2013-01-31 14:43:00,20.3,9.0,30.34,NNW,333,12.0,20.0,61,0.00,CLR,SKC,0.00,WeatherDisplay:10.37,2013-01-31 20:43:00,
2013-01-31 14:48:00,19.9,7.5,30.35,NNW,337,8.0,15.0,58,0.00,CLR,SKC,0.00,WeatherDisplay:10.37,2013-01-31 20:48:00,
2013-01-31 14:53:00,19.5,7.1,30.35,NNW,335,9.0,13.0,58,0.00,CLR,SKC,0.00,WeatherDisplay:10.37,2013-01-31 20:53:00,
2013-01-31 14:58:00,19.3,7.3,30.35,NNW,333,10.0,21.0,59,0.00,CLR,SKC,0.00,WeatherDisplay:10.37,2013-01-31 20:58:00,
2013-01-31 15:03:00,18.8,5.7,30.35,NW,323,12.0,13.0,56,0.00,CLR,SKC,0.00,WeatherDisplay:10.37,2013-01-31 21:03:00,
2013-01-31 15:08:00,17.7,4.2,30.36,NW,310,9.0,29.0,55,0.00,CLR,SKC,0.00,WeatherDisplay:10.37,2013-01-31 21:08:00,
2013-01-31 15:13:00,16.9,3.5,30.36,NW,311,9.0,22.0,55,0.00,CLR,SKC,0.00,WeatherDisplay:10.37,2013-01-31 21:13:00,
2013-01-31 15:18:00,16.6,3.6,30.37,NW,309,7.0,18.0,56,0.00,CLR,SKC,0.00,WeatherDisplay:10.37,2013-01-31 21:18:00,
2013-01-31 15:28:00,15.7,2.8,30.37,NNW,333,6.0,13.0,56,0.00,CLR,SKC,0.00,WeatherDisplay:10.37,2013-01-31 21:28:00,
2013-01-31 15:33:00,15.3,2.7,30.37,NW,320,8.0,10.0,57,0.00,CLR,SKC,0.00,WeatherDisplay:10.37,2013-01-31 21:33:00,
2013-01-31 15:38:00,15.0,3.3,30.38,NW,320,6.0,15.0,59,0.00,CLR,SKC,0.00,WeatherDisplay:10.37,2013-01-31 21:38:00,
2013-01-31 15:48:00,14.3,4.3,30.38,NNW,328,10.0,18.0,64,0.00,CLR,SKC,0.00,WeatherDisplay:10.37,2013-01-31 21:48:00,
2013-01-31 15:58:00,13.6,4.0,30.39,NW,323,5.0,15.0,65,0.00,CLR,SKC,0.00,WeatherDisplay:10.37,2013-01-31 21:58:00,
2013-01-31 16:03:00,13.6,4.0,30.39,NW,319,6.0,15.0,65,0.00,CLR,SKC,0.00,WeatherDisplay:10.37,2013-01-31 22:03:00,
2013-01-31 16:08:00,13.7,4.5,30.40,WNW,303,9.0,13.0,66,0.00,CLR,SKC,0.00,WeatherDisplay:10.37,2013-01-31 22:08:00,
2013-01-31 16:13:00,13.7,4.1,30.40,NW,314,8.0,15.0,65,0.00,CLR,SKC,0.00,WeatherDisplay:10.37,2013-01-31 22:13:00,
2013-01-31 16:18:00,13.8,3.9,30.40,NW,318,7.0,13.0,64,0.00,CLR,SKC,0.00,WeatherDisplay:10.37,2013-01-31 22:18:00,
2013-01-31 16:28:00,14.0,4.7,30.40,NNW,330,6.0,15.0,66,0.00,CLR,SKC,0.00,WeatherDisplay:10.37,2013-01-31 22:28:00,
2013-01-31 16:33:00,14.3,5.0,30.40,NNW,341,6.0,10.0,66,0.00,CLR,SKC,0.00,WeatherDisplay:10.37,2013-01-31 22:33:00,
2013-01-31 16:38:00,14.4,4.8,30.41,NNW,327,6.0,12.0,65,0.00,CLR,SKC,0.00,WeatherDisplay:10.37,2013-01-31 22:38:00,
2013-01-31 16:43:00,14.2,4.6,30.41,NW,325,6.0,13.0,65,0.00,CLR,SKC,0.00,WeatherDisplay:10.37,2013-01-31 22:43:00,
2013-01-31 16:48:00,14.3,4.7,30.41,NW,322,5.0,20.0,65,0.00,CLR,SKC,0.00,WeatherDisplay:10.37,2013-01-31 22:48:00,
2013-01-31 16:53:00,14.5,4.2,30.41,NW,321,5.0,12.0,63,0.00,CLR,SKC,0.00,WeatherDisplay:10.37,2013-01-31 22:53:00,
2013-01-31 16:58:00,14.5,3.5,30.41,NW,319,7.0,21.0,61,0.00,CLR,SKC,0.00,WeatherDisplay:10.37,2013-01-31 22:58:00,
2013-01-31 17:03:00,14.4,3.0,30.41,NW,312,7.0,16.0,60,0.00,CLR,SKC,0.00,WeatherDisplay:10.37,2013-01-31 23:03:00,
2013-01-31 17:08:00,14.2,3.2,30.41,NW,323,7.0,13.0,61,0.00,CLR,SKC,0.00,WeatherDisplay:10.37,2013-01-31 23:08:00,
2013-01-31 17:13:00,14.0,3.0,30.41,NNW,327,5.0,13.0,61,0.00,CLR,SKC,0.00,WeatherDisplay:10.37,2013-01-31 23:13:00,
2013-01-31 17:18:00,13.9,3.3,30.41,NNW,329,7.0,16.0,62,0.00,CLR,SKC,0.00,WeatherDisplay:10.37,2013-01-31 23:18:00,
2013-01-31 17:23:00,13.7,3.1,30.41,NNW,339,7.0,21.0,62,0.00,CLR,SKC,0.00,WeatherDisplay:10.37,2013-01-31 23:23:00,
2013-01-31 17:28:00,13.5,2.9,30.42,NNW,338,7.0,15.0,62,0.00,CLR,SKC,0.00,WeatherDisplay:10.37,2013-01-31 23:28:00,
2013-01-31 17:33:00,13.3,3.1,30.42,NNW,336,6.0,13.0,63,0.00,CLR,SKC,0.00,WeatherDisplay:10.37,2013-01-31 23:33:00,
2013-01-31 17:38:00,13.2,2.6,30.42,NW,319,8.0,13.0,62,0.00,CLR,SKC,0.00,WeatherDisplay:10.37,2013-01-31 23:38:00,
2013-01-31 17:48:00,12.8,2.2,30.43,NW,314,5.0,16.0,62,0.00,CLR,SKC,0.00,WeatherDisplay:10.37,2013-01-31 23:48:00,
2013-01-31 17:53:00,12.7,2.5,30.43,NW,325,5.0,8.0,63,0.00,CLR,SKC,0.00,WeatherDisplay:10.37,2013-01-31 23:53:00,
2013-01-31 17:58:00,12.6,2.7,30.43,North,2,5.0,12.0,64,0.00,CLR,SKC,0.00,WeatherDisplay:10.37,2013-01-31 23:58:00,
2013-01-31 18:03:00,12.5,2.6,30.44,NNW,327,3.0,12.0,64,0.00,CLR,SKC,0.00,WeatherDisplay:10.37,2013-02-01 00:03:00,
2013-01-31 18:08:00,12.4,2.2,30.45,NNW,334,5.0,13.0,63,0.00,CLR,SKC,0.00,WeatherDisplay:10.37,2013-02-01 00:08:00,
2013-01-31 18:18:00,12.2,2.4,30.46,NW,325,5.0,10.0,64,0.00,CLR,SKC,0.00,WeatherDisplay:10.37,2013-02-01 00:18:00,
2013-01-31 18:23:00,12.1,2.6,30.45,NW,319,3.0,7.0,65,0.00,CLR,SKC,0.00,WeatherDisplay:10.37,2013-02-01 00:23:00,
2013-01-31 18:28:00,12.0,2.8,30.46,NW,313,5.0,7.0,66,0.00,CLR,SKC,0.00,WeatherDisplay:10.37,2013-02-01 00:28:00,
2013-01-31 18:33:00,12.0,3.2,30.46,NNW,344,2.0,16.0,67,0.00,CLR,SKC,0.00,WeatherDisplay:10.37,2013-02-01 00:33:00,
2013-01-31 18:38:00,11.8,2.6,30.47,NNW,338,1.0,8.0,66,0.00,CLR,SKC,0.00,WeatherDisplay:10.37,2013-02-01 00:38:00,
2013-01-31 18:43:00,11.7,2.9,30.47,NNW,342,5.0,16.0,67,0.00,CLR,SKC,0.00,WeatherDisplay:10.37,2013-02-01 00:43:00,
2013-01-31 18:48:00,11.6,2.8,30.48,NNW,347,2.0,16.0,67,0.00,CLR,SKC,0.00,WeatherDisplay:10.37,2013-02-01 00:48:00,
2013-01-31 18:53:00,11.5,2.6,30.48,NNW,348,2.0,16.0,67,0.00,CLR,SKC,0.00,WeatherDisplay:10.37,2013-02-01 00:53:00,
2013-01-31 18:58:00,11.3,2.8,30.48,NNW,346,1.0,5.0,68,0.00,CLR,SKC,0.00,WeatherDisplay:10.37,2013-02-01 00:58:00,
2013-01-31 19:03:00,11.1,2.3,30.48,NW,321,5.0,8.0,67,0.00,CLR,SKC,0.00,WeatherDisplay:10.37,2013-02-01 01:03:00,
2013-01-31 19:08:00,11.1,2.6,30.49,NW,320,3.0,10.0,68,0.00,CLR,SKC,0.00,WeatherDisplay:10.37,2013-02-01 01:08:00,
2013-01-31 19:13:00,11.0,2.5,30.48,NNW,346,7.0,12.0,68,0.00,CLR,SKC,0.00,WeatherDisplay:10.37,2013-02-01 01:13:00,
2013-01-31 19:18:00,11.0,2.5,30.48,NNW,334,3.0,13.0,68,0.00,CLR,SKC,0.00,WeatherDisplay:10.37,2013-02-01 01:18:00,
2013-01-31 19:23:00,10.9,2.1,30.49,NW,314,7.0,13.0,67,0.00,CLR,SKC,0.00,WeatherDisplay:10.37,2013-02-01 01:23:00,
2013-01-31 19:28:00,10.8,2.3,30.49,NNW,333,6.0,10.0,68,0.00,CLR,SKC,0.00,WeatherDisplay:10.37,2013-02-01 01:28:00,
2013-01-31 19:33:00,10.8,2.6,30.49,North,349,5.0,15.0,69,0.00,CLR,SKC,0.00,WeatherDisplay:10.37,2013-02-01 01:33:00,
2013-01-31 19:38:00,10.7,2.2,30.49,NNW,334,2.0,5.0,68,0.00,CLR,SKC,0.00,WeatherDisplay:10.37,2013-02-01 01:38:00,
2013-01-31 19:43:00,10.6,2.1,30.49,NW,324,3.0,8.0,68,0.00,CLR,SKC,0.00,WeatherDisplay:10.37,2013-02-01 01:43:00,
2013-01-31 19:48:00,10.4,2.0,30.49,NNW,332,0.0,11.0,68,0.00,CLR,SKC,0.00,WeatherDisplay:10.37,2013-02-01 01:48:00,
2013-01-31 19:53:00,10.3,1.8,30.50,North,350,6.0,8.0,68,0.00,CLR,SKC,0.00,WeatherDisplay:10.37,2013-02-01 01:53:00,
2013-01-31 19:58:00,10.3,1.8,30.50,NW,326,3.0,7.0,68,0.00,CLR,SKC,0.00,WeatherDisplay:10.37,2013-02-01 01:58:00,
2013-01-31 20:03:00,10.1,1.7,30.50,NW,324,5.0,7.0,68,0.00,CLR,SKC,0.00,WeatherDisplay:10.37,2013-02-01 02:03:00,
2013-01-31 20:08:00,10.1,2.0,30.50,NNW,345,3.0,8.0,69,0.00,CLR,SKC,0.00,WeatherDisplay:10.37,2013-02-01 02:08:00,
2013-01-31 20:13:00,10.1,1.9,30.51,NNW,342,2.0,8.0,69,0.00,CLR,SKC,0.00,WeatherDisplay:10.37,2013-02-01 02:13:00,
2013-01-31 20:18:00,9.9,1.8,30.51,NW,311,1.0,3.0,69,0.00,CLR,SKC,0.00,WeatherDisplay:10.37,2013-02-01 02:18:00,
2013-01-31 20:23:00,9.8,1.7,30.52,NW,321,1.0,2.0,69,0.00,CLR,SKC,0.00,WeatherDisplay:10.37,2013-02-01 02:23:00,
2013-01-31 20:28:00,9.7,1.9,30.52,WNW,300,1.0,3.0,70,0.00,CLR,SKC,0.00,WeatherDisplay:10.37,2013-02-01 02:28:00,
2013-01-31 20:33:00,9.7,1.6,30.52,WNW,287,2.0,3.0,69,0.00,CLR,SKC,0.00,WeatherDisplay:10.37,2013-02-01 02:33:00,
2013-01-31 20:38:00,9.6,1.5,30.53,WNW,299,0.0,2.0,69,0.00,CLR,SKC,0.00,WeatherDisplay:10.37,2013-02-01 02:38:00,
2013-01-31 20:43:00,9.6,1.5,30.53,WNW,282,1.0,3.0,69,0.00,CLR,SKC,0.00,WeatherDisplay:10.37,2013-02-01 02:43:00,
2013-01-31 20:48:00,9.5,1.4,30.53,WNW,288,0.0,5.0,69,0.00,CLR,SKC,0.00,WeatherDisplay:10.37,2013-02-01 02:48:00,
2013-01-31 20:53:00,9.4,1.3,30.53,NW,318,2.0,5.0,69,0.00,CLR,SKC,0.00,WeatherDisplay:10.37,2013-02-01 02:53:00,
2013-01-31 20:58:00,9.4,1.2,30.54,NW,324,0.0,5.0,69,0.00,CLR,SKC,0.00,WeatherDisplay:10.37,2013-02-01 02:58:00,
2013-01-31 21:03:00,9.3,1.5,30.54,WNW,301,0.0,3.0,70,0.00,CLR,SKC,0.00,WeatherDisplay:10.37,2013-02-01 03:03:00,
2013-01-31 21:08:00,9.2,1.4,30.54,WNW,283,0.0,2.0,70,0.00,CLR,SKC,0.00,WeatherDisplay:10.37,2013-02-01 03:08:00,
2013-01-31 21:13:00,9.2,1.7,30.55,WNW,282,1.0,2.0,71,0.00,CLR,SKC,0.00,WeatherDisplay:10.37,2013-02-01 03:13:00,
2013-01-31 21:18:00,9.2,1.7,30.55,WNW,286,1.0,5.0,71,0.00,CLR,SKC,0.00,WeatherDisplay:10.37,2013-02-01 03:18:00,
2013-01-31 21:28:00,9.2,1.4,30.56,WNW,289,2.0,3.0,70,0.00,CLR,SKC,0.00,WeatherDisplay:10.37,2013-02-01 03:28:00,
2013-01-31 21:33:00,9.2,1.7,30.56,West,281,1.0,3.0,71,0.00,CLR,SKC,0.00,WeatherDisplay:10.37,2013-02-01 03:33:00,
2013-01-31 21:38:00,9.2,1.7,30.56,West,279,2.0,3.0,71,0.00,CLR,SKC,0.00,WeatherDisplay:10.37,2013-02-01 03:38:00,
2013-01-31 21:43:00,9.1,1.9,30.57,West,266,1.0,3.0,72,0.00,CLR,SKC,0.00,WeatherDisplay:10.37,2013-02-01 03:43:00,
2013-01-31 21:48:00,9.0,1.8,30.57,West,263,2.0,3.0,72,0.00,CLR,SKC,0.00,WeatherDisplay:10.37,2013-02-01 03:48:00,
2013-01-31 21:53:00,9.0,1.8,30.57,West,272,2.0,7.0,72,0.00,CLR,SKC,0.00,WeatherDisplay:10.37,2013-02-01 03:53:00,
2013-01-31 21:58:00,8.9,1.7,30.58,West,266,0.0,2.0,72,0.00,CLR,SKC,0.00,WeatherDisplay:10.37,2013-02-01 03:58:00,
2013-01-31 22:03:00,8.9,1.7,30.57,West,270,0.0,3.0,72,0.00,CLR,SKC,0.00,WeatherDisplay:10.37,2013-02-01 04:03:00,
2013-01-31 22:08:00,8.8,1.6,30.58,WNW,287,1.0,7.0,72,0.00,CLR,SKC,0.00,WeatherDisplay:10.37,2013-02-01 04:08:00,
2013-01-31 22:13:00,8.8,1.6,30.57,WNW,288,1.0,2.0,72,0.00,CLR,SKC,0.00,WeatherDisplay:10.37,2013-02-01 04:13:00,
2013-01-31 22:18:00,8.7,1.8,30.58,WNW,290,1.0,3.0,73,0.00,CLR,SKC,0.00,WeatherDisplay:10.37,2013-02-01 04:18:00,
2013-01-31 22:23:00,8.7,1.8,30.58,West,278,0.0,5.0,73,0.00,CLR,SKC,0.00,WeatherDisplay:10.37,2013-02-01 04:23:00,
2013-01-31 22:28:00,8.6,1.7,30.58,West,265,0.0,2.0,73,0.00,CLR,SKC,0.00,WeatherDisplay:10.37,2013-02-01 04:28:00,
2013-01-31 22:33:00,8.5,1.6,30.58,West,267,0.0,2.0,73,0.00,CLR,SKC,0.00,WeatherDisplay:10.37,2013-02-01 04:33:00,
2013-01-31 22:38:00,8.4,1.5,30.58,West,273,0.0,2.0,73,0.00,CLR,SKC,0.00,WeatherDisplay:10.37,2013-02-01 04:38:00,
2013-01-31 22:43:00,8.3,1.7,30.57,West,276,0.0,0.0,74,0.00,CLR,SKC,0.00,WeatherDisplay:10.37,2013-02-01 04:43:00,
2013-01-31 22:48:00,8.2,1.6,30.57,West,277,0.0,0.0,74,0.00,CLR,SKC,0.00,WeatherDisplay:10.37,2013-02-01 04:48:00,
2013-01-31 22:58:00,8.2,1.6,30.57,WNW,303,0.0,2.0,74,0.00,CLR,SKC,0.00,WeatherDisplay:10.37,2013-02-01 04:58:00,
2013-01-31 23:03:00,8.2,1.6,30.57,NNW,332,0.0,0.0,74,0.00,CLR,SKC,0.00,WeatherDisplay:10.37,2013-02-01 05:03:00,
2013-01-31 23:08:00,8.0,1.7,30.57,NNW,332,0.0,0.0,75,0.00,CLR,SKC,0.00,WeatherDisplay:10.37,2013-02-01 05:08:00,
2013-01-31 23:13:00,7.9,1.6,30.56,NNW,332,0.0,0.0,75,0.00,CLR,SKC,0.00,WeatherDisplay:10.37,2013-02-01 05:13:00,
2013-01-31 23:18:00,7.9,1.9,30.56,NNW,333,0.0,0.0,76,0.00,CLR,SKC,0.00,WeatherDisplay:10.37,2013-02-01 05:18:00,
2013-01-31 23:23:00,8.0,2.0,30.56,NNW,331,0.0,3.0,76,0.00,CLR,SKC,0.00,WeatherDisplay:10.37,2013-02-01 05:23:00,
2013-01-31 23:28:00,8.0,2.0,30.56,NNW,336,0.0,3.0,76,0.00,CLR,SKC,0.00,WeatherDisplay:10.37,2013-02-01 05:28:00,
2013-01-31 23:33:00,8.1,2.1,30.56,North,350,0.0,2.0,76,0.00,CLR,SKC,0.00,WeatherDisplay:10.37,2013-02-01 05:33:00,
2013-01-31 23:38:00,8.0,2.0,30.56,NNW,347,0.0,2.0,76,0.00,CLR,SKC,0.00,WeatherDisplay:10.37,2013-02-01 05:38:00,
2013-01-31 23:43:00,8.0,2.0,30.56,NNW,345,0.0,0.0,76,0.00,CLR,SKC,0.00,WeatherDisplay:10.37,2013-02-01 05:43:00,
2013-01-31 23:48:00,7.9,1.9,30.56,NNW,345,0.0,0.0,76,0.00,CLR,SKC,0.00,WeatherDisplay:10.37,2013-02-01 05:48:00,
2013-01-31 23:53:00,7.8,1.8,30.57,NNW,345,0.0,0.0,76,0.00,CLR,SKC,0.00,WeatherDisplay:10.37,2013-02-01 05:53:00,